Orbital elements of COSMOS 2251 DEB
| Launched | 15 June 1993 |
| Flight ended | – |
| Launch site | Plesetsk Missile and Space Complex, Russia |
| Owner | Commonwealth of Independent States (former USSR) |
| NORAD ID | 34118 |
| Date fetched |
Epoch osculation |
Inc. [°] |
Ecc. | RA asc node [hr] |
Arg Peri. [°] |
Mean anom [°] |
Mean motion [rev/day] |
Abs. mag |
| Date fetched |
Epoch osculation |
Inc. [°] |
Ecc. | RA asc node [hr] |
Arg Peri. [°] |
Mean anom [°] |
Mean motion [rev/day] |
Abs. mag |
| 2026 May 03 17:57 | 2026 Apr 30 13:56:23 | 73.9504 | 0.00582 | 21.7945 | 124.2333 | 257.8279 | 15.00186 | – |
| 2026 May 02 17:57 | 2026 Apr 30 13:56:23 | 73.9504 | 0.00582 | 21.7945 | 124.2333 | 257.8279 | 15.00186 | – |
| 2026 May 01 17:56 | 2026 Apr 30 13:56:23 | 73.9504 | 0.00582 | 21.7945 | 124.2333 | 257.8279 | 15.00186 | – |
| 2026 Apr 30 17:56 | 2026 Apr 30 13:56:23 | 73.9504 | 0.00582 | 21.7945 | 124.2333 | 257.8279 | 15.00186 | – |
| 2026 Apr 29 17:57 | 2026 Apr 24 01:38:46 | 73.9515 | 0.00589 | 22.6816 | 139.2526 | 257.8279 | 15.00186 | – |
| 2026 Apr 28 17:56 | 2026 Apr 24 01:38:46 | 73.9515 | 0.00589 | 22.6816 | 139.2526 | 257.8279 | 15.00186 | – |
| 2026 Apr 27 17:58 | 2026 Apr 24 01:38:46 | 73.9515 | 0.00589 | 22.6816 | 139.2526 | 257.8279 | 15.00186 | – |
| 2026 Apr 26 17:58 | 2026 Apr 24 01:38:46 | 73.9515 | 0.00589 | 22.6816 | 139.2526 | 257.8279 | 15.00186 | – |
| 2026 Apr 25 17:58 | 2026 Apr 24 01:38:46 | 73.9515 | 0.00589 | 22.6816 | 139.2526 | 257.8279 | 15.00186 | – |
| 2026 Apr 24 17:59 | 2026 Apr 24 01:38:46 | 73.9515 | 0.00589 | 22.6816 | 139.2526 | 257.8279 | 15.00186 | – |
| 2026 Apr 23 17:57 | 2026 Apr 19 03:11:53 | 73.9516 | 0.00592 | 23.3537 | 150.5787 | 257.8279 | 15.00186 | – |
| 2026 Apr 22 17:57 | 2026 Apr 19 03:11:53 | 73.9516 | 0.00592 | 23.3537 | 150.5787 | 257.8279 | 15.00186 | – |
| 2026 Apr 21 17:57 | 2026 Apr 19 03:11:53 | 73.9516 | 0.00592 | 23.3537 | 150.5787 | 257.8279 | 15.00186 | – |
| 2026 Apr 20 17:57 | 2026 Apr 19 03:11:53 | 73.9516 | 0.00592 | 23.3537 | 150.5787 | 257.8279 | 15.00186 | – |
| 2026 Apr 19 17:58 | 2026 Apr 19 03:11:53 | 73.9516 | 0.00592 | 23.3537 | 150.5787 | 257.8279 | 15.00186 | – |
| 2026 Apr 18 17:56 | 2026 Apr 12 04:43:45 | 73.9525 | 0.00596 | 0.2979 | 166.5954 | 257.8279 | 15.00186 | – |
| 2026 Apr 16 17:57 | 2026 Apr 12 04:43:45 | 73.9525 | 0.00596 | 0.2979 | 166.5954 | 257.8279 | 15.00186 | – |
| 2026 Apr 14 17:57 | 2026 Apr 12 04:43:45 | 73.9525 | 0.00596 | 0.2979 | 166.5954 | 257.8279 | 15.00186 | – |
| 2026 Apr 13 17:57 | 2026 Apr 12 04:43:45 | 73.9525 | 0.00596 | 0.2979 | 166.5954 | 257.8279 | 15.00186 | – |
| 2026 Apr 12 17:57 | 2026 Apr 08 00:48:57 | 73.9526 | 0.00598 | 0.8645 | 176.1330 | 257.8279 | 15.00186 | – |
| 2026 Apr 11 17:57 | 2026 Apr 08 00:48:57 | 73.9526 | 0.00598 | 0.8645 | 176.1330 | 257.8279 | 15.00186 | – |
| 2026 Apr 10 17:58 | 2026 Apr 08 00:48:57 | 73.9526 | 0.00598 | 0.8645 | 176.1330 | 257.8279 | 15.00186 | – |
| 2026 Apr 09 18:01 | 2026 Apr 08 00:48:57 | 73.9526 | 0.00598 | 0.8645 | 176.1330 | 257.8279 | 15.00186 | – |
| 2026 Apr 08 17:57 | 2026 Apr 08 00:48:57 | 73.9526 | 0.00598 | 0.8645 | 176.1330 | 257.8279 | 15.00186 | – |
| 2026 Apr 07 17:57 | 2026 Apr 02 05:57:31 | 73.9530 | 0.00602 | 1.6516 | 189.5515 | 257.8279 | 15.00186 | – |
| 2026 Apr 06 17:57 | 2026 Apr 02 05:57:31 | 73.9530 | 0.00602 | 1.6516 | 189.5515 | 257.8279 | 15.00186 | – |